Year,Month,Day,Hour,Minute,Value (Times are PST for temperature in C)
2014,07,11,00,00,16.00
2014,07,11,00,01,15.90
2014,07,11,00,02,15.90
2014,07,11,00,03,15.80
2014,07,11,00,04,15.80
2014,07,11,00,05,15.80
2014,07,11,00,06,15.80
2014,07,11,00,07,15.80
2014,07,11,00,08,15.80
2014,07,11,00,09,15.70
2014,07,11,00,10,15.70
2014,07,11,00,11,15.70
2014,07,11,00,12,15.70
2014,07,11,00,13,15.70
2014,07,11,00,14,15.70
2014,07,11,00,15,15.60
2014,07,11,00,16,15.60
2014,07,11,00,17,15.60
2014,07,11,00,18,15.60
2014,07,11,00,19,15.60
2014,07,11,00,20,15.50
2014,07,11,00,21,15.50
2014,07,11,00,22,15.50
2014,07,11,00,23,15.40
2014,07,11,00,24,15.40
2014,07,11,00,25,15.40
2014,07,11,00,26,15.40
2014,07,11,00,27,15.40
2014,07,11,00,28,15.40
2014,07,11,00,29,15.40
2014,07,11,00,30,15.40
2014,07,11,00,31,15.30
2014,07,11,00,32,15.30
2014,07,11,00,33,15.30
2014,07,11,00,34,15.30
2014,07,11,00,35,15.30
2014,07,11,00,36,15.20
2014,07,11,00,37,15.20
2014,07,11,00,38,15.20
2014,07,11,00,39,15.20
2014,07,11,00,40,15.20
2014,07,11,00,41,15.20
2014,07,11,00,42,15.10
2014,07,11,00,43,15.10
2014,07,11,00,44,15.10
2014,07,11,00,45,15.10
2014,07,11,00,46,15.10
2014,07,11,00,47,15.10
2014,07,11,00,48,15.00
2014,07,11,00,49,15.00
2014,07,11,00,50,15.00
2014,07,11,00,51,15.00
2014,07,11,00,52,15.00
2014,07,11,00,53,15.00
2014,07,11,00,54,14.90
2014,07,11,00,55,14.90
2014,07,11,00,56,14.90
2014,07,11,00,57,14.90
2014,07,11,00,58,14.90
2014,07,11,00,59,14.90
2014,07,11,01,00,14.90
2014,07,11,01,01,14.90
2014,07,11,01,02,14.90
2014,07,11,01,03,14.90
2014,07,11,01,04,14.80
2014,07,11,01,05,14.80
2014,07,11,01,06,14.80
2014,07,11,01,07,14.80
2014,07,11,01,08,14.80
2014,07,11,01,09,14.70
2014,07,11,01,10,14.70
2014,07,11,01,11,14.70
2014,07,11,01,12,14.70
2014,07,11,01,13,14.70
2014,07,11,01,14,14.70
2014,07,11,01,15,14.70
2014,07,11,01,16,14.60
2014,07,11,01,17,14.60
2014,07,11,01,18,14.60
2014,07,11,01,19,14.60
2014,07,11,01,20,14.60
2014,07,11,01,21,14.50
2014,07,11,01,22,14.50
2014,07,11,01,23,14.50
2014,07,11,01,24,14.50
2014,07,11,01,25,14.40
2014,07,11,01,26,14.40
2014,07,11,01,27,14.40
2014,07,11,01,28,14.40
2014,07,11,01,29,14.40
2014,07,11,01,30,14.30
2014,07,11,01,31,14.30
2014,07,11,01,32,14.30
2014,07,11,01,33,14.30
2014,07,11,01,34,14.30
2014,07,11,01,35,14.20
2014,07,11,01,36,14.20
2014,07,11,01,37,14.20
2014,07,11,01,38,14.20
2014,07,11,01,39,14.20
2014,07,11,01,40,14.10
2014,07,11,01,41,14.10
2014,07,11,01,42,14.10
2014,07,11,01,43,14.10
2014,07,11,01,44,14.00
2014,07,11,01,45,14.00
2014,07,11,01,46,14.00
2014,07,11,01,47,13.90
2014,07,11,01,48,13.90
2014,07,11,01,49,13.90
2014,07,11,01,50,13.90
2014,07,11,01,51,13.90
2014,07,11,01,52,13.80
2014,07,11,01,53,13.80
2014,07,11,01,54,13.80
2014,07,11,01,55,13.80
2014,07,11,01,56,13.80
2014,07,11,01,57,13.70
2014,07,11,01,58,13.70
2014,07,11,01,59,13.70
2014,07,11,02,00,13.70
2014,07,11,02,01,13.70
2014,07,11,02,02,13.60
2014,07,11,02,03,13.60
2014,07,11,02,04,13.60
2014,07,11,02,05,13.60
2014,07,11,02,06,13.60
2014,07,11,02,07,13.60
2014,07,11,02,08,13.60
2014,07,11,02,09,13.50
2014,07,11,02,10,13.50
2014,07,11,02,11,13.50
2014,07,11,02,12,13.50
2014,07,11,02,13,13.50
2014,07,11,02,14,13.40
2014,07,11,02,15,13.40
2014,07,11,02,16,13.40
2014,07,11,02,17,13.40
2014,07,11,02,18,13.40
2014,07,11,02,19,13.30
2014,07,11,02,20,13.30
2014,07,11,02,21,13.30
2014,07,11,02,22,13.30
2014,07,11,02,23,13.30
2014,07,11,02,24,13.30
2014,07,11,02,25,13.30
2014,07,11,02,26,13.20
2014,07,11,02,27,13.20
2014,07,11,02,28,13.20
2014,07,11,02,29,13.20
2014,07,11,02,30,13.20
2014,07,11,02,31,13.20
2014,07,11,02,32,13.10
2014,07,11,02,33,13.10
2014,07,11,02,34,13.10
2014,07,11,02,35,13.10
2014,07,11,02,36,13.10
2014,07,11,02,37,13.10
2014,07,11,02,38,13.00
2014,07,11,02,39,13.00
2014,07,11,02,40,13.00
2014,07,11,02,41,13.00
2014,07,11,02,42,13.00
2014,07,11,02,43,12.90
2014,07,11,02,44,12.90
2014,07,11,02,45,12.90
2014,07,11,02,46,12.90
2014,07,11,02,47,12.90
2014,07,11,02,48,12.90
2014,07,11,02,49,12.90
2014,07,11,02,50,12.80
2014,07,11,02,51,12.80
2014,07,11,02,52,12.80
2014,07,11,02,53,12.80
2014,07,11,02,54,12.80
2014,07,11,02,55,12.80
2014,07,11,02,56,12.80
2014,07,11,02,57,12.80
2014,07,11,02,58,12.80
2014,07,11,02,59,12.80
2014,07,11,03,00,12.80
2014,07,11,03,01,12.80
2014,07,11,03,02,12.70
2014,07,11,03,03,12.70
2014,07,11,03,04,12.70
2014,07,11,03,05,12.70
2014,07,11,03,06,12.70
2014,07,11,03,07,12.70
2014,07,11,03,08,12.70
2014,07,11,03,09,12.60
2014,07,11,03,10,12.60
2014,07,11,03,11,12.60
2014,07,11,03,12,12.60
2014,07,11,03,13,12.60
2014,07,11,03,14,12.60
2014,07,11,03,15,12.60
2014,07,11,03,16,12.60
2014,07,11,03,17,12.60
2014,07,11,03,18,12.50
2014,07,11,03,19,12.50
2014,07,11,03,20,12.50
2014,07,11,03,21,12.50
2014,07,11,03,22,12.50
2014,07,11,03,23,12.40
2014,07,11,03,24,12.40
2014,07,11,03,25,12.40
2014,07,11,03,26,12.40
2014,07,11,03,27,12.40
2014,07,11,03,28,12.40
2014,07,11,03,29,12.30
2014,07,11,03,30,12.30
2014,07,11,03,31,12.30
2014,07,11,03,32,12.30
2014,07,11,03,33,12.30
2014,07,11,03,34,12.30
2014,07,11,03,35,12.30
2014,07,11,03,36,12.30
2014,07,11,03,37,12.30
2014,07,11,03,38,12.30
2014,07,11,03,39,12.20
2014,07,11,03,40,12.20
2014,07,11,03,41,12.20
2014,07,11,03,42,12.20
2014,07,11,03,43,12.20
2014,07,11,03,44,12.20
2014,07,11,03,45,12.20
2014,07,11,03,46,12.20
2014,07,11,03,47,12.20
2014,07,11,03,48,12.20
2014,07,11,03,49,12.20
2014,07,11,03,50,12.10
2014,07,11,03,51,12.10
2014,07,11,03,52,12.10
2014,07,11,03,53,12.10
2014,07,11,03,54,12.10
2014,07,11,03,55,12.10
2014,07,11,03,56,12.10
2014,07,11,03,57,12.00
2014,07,11,03,58,12.00
2014,07,11,03,59,12.00
2014,07,11,04,00,12.00
2014,07,11,04,01,12.00
2014,07,11,04,02,11.90
2014,07,11,04,03,11.90
2014,07,11,04,04,11.90
2014,07,11,04,05,11.90
2014,07,11,04,06,11.90
2014,07,11,04,07,11.90
2014,07,11,04,08,11.90
2014,07,11,04,09,11.90
2014,07,11,04,10,11.80
2014,07,11,04,11,11.80
2014,07,11,04,12,11.80
2014,07,11,04,13,11.80
2014,07,11,04,14,11.80
2014,07,11,04,15,11.80
2014,07,11,04,16,11.80
2014,07,11,04,17,11.80
2014,07,11,04,18,11.80
2014,07,11,04,19,11.80
2014,07,11,04,20,11.80
2014,07,11,04,21,11.80
2014,07,11,04,22,11.70
2014,07,11,04,23,11.70
2014,07,11,04,24,11.70
2014,07,11,04,25,11.70
2014,07,11,04,26,11.70
2014,07,11,04,27,11.70
2014,07,11,04,28,11.70
2014,07,11,04,29,11.70
2014,07,11,04,30,11.70
2014,07,11,04,31,11.70
2014,07,11,04,32,11.60
2014,07,11,04,33,11.60
2014,07,11,04,34,11.60
2014,07,11,04,35,11.60
2014,07,11,04,36,11.60
2014,07,11,04,37,11.60
2014,07,11,04,38,11.60
2014,07,11,04,39,11.50
2014,07,11,04,40,11.50
2014,07,11,04,41,11.50
2014,07,11,04,42,11.50
2014,07,11,04,43,11.50
2014,07,11,04,44,11.40
2014,07,11,04,45,11.40
2014,07,11,04,46,11.40
2014,07,11,04,47,11.40
2014,07,11,04,48,11.40
2014,07,11,04,49,11.40
2014,07,11,04,50,11.40
2014,07,11,04,51,11.40
2014,07,11,04,52,11.30
2014,07,11,04,53,11.30
2014,07,11,04,54,11.30
2014,07,11,04,55,11.30
2014,07,11,04,56,11.30
2014,07,11,04,57,11.30
2014,07,11,04,58,11.30
2014,07,11,04,59,11.20
2014,07,11,05,00,11.20
2014,07,11,05,01,11.20
2014,07,11,05,02,11.20
2014,07,11,05,03,11.20
2014,07,11,05,04,11.20
2014,07,11,05,05,11.20
2014,07,11,05,06,11.10
2014,07,11,05,07,11.10
2014,07,11,05,08,11.10
2014,07,11,05,09,11.10
2014,07,11,05,10,11.10
2014,07,11,05,11,11.10
2014,07,11,05,12,11.10
2014,07,11,05,13,11.10
2014,07,11,05,14,11.10
2014,07,11,05,15,11.10
2014,07,11,05,16,11.10
2014,07,11,05,17,11.10
2014,07,11,05,18,11.10
2014,07,11,05,19,11.00
2014,07,11,05,20,11.00
2014,07,11,05,21,11.00
2014,07,11,05,22,11.00
2014,07,11,05,23,11.00
2014,07,11,05,24,11.00
2014,07,11,05,25,11.00
2014,07,11,05,26,10.90
2014,07,11,05,27,10.90
2014,07,11,05,28,10.90
2014,07,11,05,29,10.90
2014,07,11,05,30,10.90
2014,07,11,05,31,10.90
2014,07,11,05,32,10.90
2014,07,11,05,33,10.90
2014,07,11,05,34,10.90
2014,07,11,05,35,10.90
2014,07,11,05,36,10.80
2014,07,11,05,37,10.80
2014,07,11,05,38,10.80
2014,07,11,05,39,10.80
2014,07,11,05,40,10.80
2014,07,11,05,41,10.80
2014,07,11,05,42,10.80
2014,07,11,05,43,10.80
2014,07,11,05,44,10.80
2014,07,11,05,45,10.80
2014,07,11,05,46,10.80
2014,07,11,05,47,10.70
2014,07,11,05,48,10.70
2014,07,11,05,49,10.70
2014,07,11,05,50,10.70
2014,07,11,05,51,10.70
2014,07,11,05,52,10.70
2014,07,11,05,53,10.70
2014,07,11,05,54,10.70
2014,07,11,05,55,10.70
2014,07,11,05,56,10.70
2014,07,11,05,57,10.70
2014,07,11,05,58,10.70
2014,07,11,05,59,10.70
2014,07,11,06,00,10.70
2014,07,11,06,01,10.70
2014,07,11,06,02,10.70
2014,07,11,06,03,10.70
2014,07,11,06,04,10.70
2014,07,11,06,05,10.70
2014,07,11,06,06,10.70
2014,07,11,06,07,10.70
2014,07,11,06,08,10.70
2014,07,11,06,09,10.70
2014,07,11,06,10,10.70
2014,07,11,06,11,10.70
2014,07,11,06,12,10.70
2014,07,11,06,13,10.70
2014,07,11,06,14,10.70
2014,07,11,06,15,10.70
2014,07,11,06,16,10.70
2014,07,11,06,17,10.60
2014,07,11,06,18,10.60
2014,07,11,06,19,10.60
2014,07,11,06,20,10.60
2014,07,11,06,21,10.60
2014,07,11,06,22,10.60
2014,07,11,06,23,10.60
2014,07,11,06,24,10.60
2014,07,11,06,25,10.60
2014,07,11,06,26,10.60
2014,07,11,06,27,10.60
2014,07,11,06,28,10.60
2014,07,11,06,29,10.60
2014,07,11,06,30,10.60
2014,07,11,06,31,10.60
2014,07,11,06,32,10.60
2014,07,11,06,33,10.60
2014,07,11,06,34,10.60
2014,07,11,06,35,10.60
2014,07,11,06,36,10.60
2014,07,11,06,37,10.60
2014,07,11,06,38,10.60
2014,07,11,06,39,10.60
2014,07,11,06,40,10.60
2014,07,11,06,41,10.60
2014,07,11,06,42,10.60
2014,07,11,06,43,10.70
2014,07,11,06,44,10.70
2014,07,11,06,45,10.70
2014,07,11,06,46,10.70
2014,07,11,06,47,10.70
2014,07,11,06,48,10.70
2014,07,11,06,49,10.70
2014,07,11,06,50,10.70
2014,07,11,06,51,10.70
2014,07,11,06,52,10.70
2014,07,11,06,53,10.80
2014,07,11,06,54,10.80
2014,07,11,06,55,10.80
2014,07,11,06,56,10.80
2014,07,11,06,57,10.90
2014,07,11,06,58,10.90
2014,07,11,06,59,10.90
2014,07,11,07,00,11.00
2014,07,11,07,01,11.10
2014,07,11,07,02,11.10
2014,07,11,07,03,11.20
2014,07,11,07,04,11.20
2014,07,11,07,05,11.30
2014,07,11,07,06,11.30
2014,07,11,07,07,11.40
2014,07,11,07,08,11.50
2014,07,11,07,09,11.50
2014,07,11,07,10,11.60
2014,07,11,07,11,11.70
2014,07,11,07,12,11.80
2014,07,11,07,13,11.90
2014,07,11,07,14,12.00
2014,07,11,07,15,12.10
2014,07,11,07,16,12.20
2014,07,11,07,17,12.30
2014,07,11,07,18,12.40
2014,07,11,07,19,12.40
2014,07,11,07,20,12.50
2014,07,11,07,21,12.60
2014,07,11,07,22,12.60
2014,07,11,07,23,12.70
2014,07,11,07,24,12.70
2014,07,11,07,25,12.80
2014,07,11,07,26,12.80
2014,07,11,07,27,12.90
2014,07,11,07,28,13.00
2014,07,11,07,29,13.00
2014,07,11,07,30,13.00
2014,07,11,07,31,13.00
2014,07,11,07,32,13.10
2014,07,11,07,33,13.10
2014,07,11,07,34,13.10
2014,07,11,07,35,13.20
2014,07,11,07,36,13.20
2014,07,11,07,37,13.30
2014,07,11,07,38,13.40
2014,07,11,07,39,13.40
2014,07,11,07,40,13.50
2014,07,11,07,41,13.60
2014,07,11,07,42,13.60
2014,07,11,07,43,13.70
2014,07,11,07,44,13.80
2014,07,11,07,45,13.90
2014,07,11,07,46,14.00
2014,07,11,07,47,14.10
2014,07,11,07,48,14.20
2014,07,11,07,49,14.30
2014,07,11,07,50,14.40
2014,07,11,07,51,14.50
2014,07,11,07,52,14.50
2014,07,11,07,53,14.60
2014,07,11,07,54,14.60
2014,07,11,07,55,14.70
2014,07,11,07,56,14.70
2014,07,11,07,57,14.80
2014,07,11,07,58,14.80
2014,07,11,07,59,14.80
2014,07,11,08,00,14.80
2014,07,11,08,01,14.80
2014,07,11,08,02,14.90
2014,07,11,08,03,14.90
2014,07,11,08,04,14.90
2014,07,11,08,05,15.00
2014,07,11,08,06,15.10
2014,07,11,08,07,15.10
2014,07,11,08,08,15.10
2014,07,11,08,09,15.20
2014,07,11,08,10,15.20
2014,07,11,08,11,15.30
2014,07,11,08,12,15.30
2014,07,11,08,13,15.40
2014,07,11,08,14,15.50
2014,07,11,08,15,15.50
2014,07,11,08,16,15.60
2014,07,11,08,17,15.60
2014,07,11,08,18,15.70
2014,07,11,08,19,15.70
2014,07,11,08,20,15.80
2014,07,11,08,21,15.80
2014,07,11,08,22,15.90
2014,07,11,08,23,15.90
2014,07,11,08,24,16.00
2014,07,11,08,25,16.10
2014,07,11,08,26,16.10
2014,07,11,08,27,16.10
2014,07,11,08,28,16.20
2014,07,11,08,29,16.30
2014,07,11,08,30,16.30
2014,07,11,08,31,16.30
2014,07,11,08,32,16.40
2014,07,11,08,33,16.40
2014,07,11,08,34,16.40
2014,07,11,08,35,16.40
2014,07,11,08,36,16.40
2014,07,11,08,37,16.40
2014,07,11,08,38,16.40
2014,07,11,08,39,16.40
2014,07,11,08,40,16.50
2014,07,11,08,41,16.50
2014,07,11,08,42,16.60
2014,07,11,08,43,16.70
2014,07,11,08,44,16.70
2014,07,11,08,45,16.80
2014,07,11,08,46,16.80
2014,07,11,08,47,16.90
2014,07,11,08,48,16.90
2014,07,11,08,49,16.90
2014,07,11,08,50,16.90
2014,07,11,08,51,16.90
2014,07,11,08,52,16.90
2014,07,11,08,53,17.00
2014,07,11,08,54,17.10
2014,07,11,08,55,17.20
2014,07,11,08,56,17.30
2014,07,11,08,57,17.30
2014,07,11,08,58,17.30
2014,07,11,08,59,17.30
2014,07,11,09,00,17.30
2014,07,11,09,01,17.30
2014,07,11,09,02,17.30
2014,07,11,09,03,17.30
2014,07,11,09,04,17.40
2014,07,11,09,05,17.40
2014,07,11,09,06,17.40
2014,07,11,09,07,17.50
2014,07,11,09,08,17.50
2014,07,11,09,09,17.60
2014,07,11,09,10,17.60
2014,07,11,09,11,17.70
2014,07,11,09,12,17.70
2014,07,11,09,13,17.80
2014,07,11,09,14,17.80
2014,07,11,09,15,17.90
2014,07,11,09,16,17.90
2014,07,11,09,17,18.00
2014,07,11,09,18,18.10
2014,07,11,09,19,18.20
2014,07,11,09,20,18.20
2014,07,11,09,21,18.30
2014,07,11,09,22,18.40
2014,07,11,09,23,18.40
2014,07,11,09,24,18.50
2014,07,11,09,25,18.60
2014,07,11,09,26,18.60
2014,07,11,09,27,18.60
2014,07,11,09,28,18.60
2014,07,11,09,29,18.60
2014,07,11,09,30,18.60
2014,07,11,09,31,18.50
2014,07,11,09,32,18.50
2014,07,11,09,33,18.50
2014,07,11,09,34,18.40
2014,07,11,09,35,18.50
2014,07,11,09,36,18.50
2014,07,11,09,37,18.60
2014,07,11,09,38,18.60
2014,07,11,09,39,18.70
2014,07,11,09,40,18.80
2014,07,11,09,41,18.80
2014,07,11,09,42,18.80
2014,07,11,09,43,18.90
2014,07,11,09,44,18.90
2014,07,11,09,45,18.90
2014,07,11,09,46,18.90
2014,07,11,09,47,19.00
2014,07,11,09,48,19.00
2014,07,11,09,49,19.10
2014,07,11,09,50,19.20
2014,07,11,09,51,19.30
2014,07,11,09,52,19.50
2014,07,11,09,53,19.60
2014,07,11,09,54,19.70
2014,07,11,09,55,19.80
2014,07,11,09,56,19.80
2014,07,11,09,57,19.80
2014,07,11,09,58,19.70
2014,07,11,09,59,19.70
2014,07,11,10,00,19.70
2014,07,11,10,01,19.70
2014,07,11,10,02,19.70
2014,07,11,10,03,19.80
2014,07,11,10,04,19.80
2014,07,11,10,05,19.80
2014,07,11,10,06,19.80
2014,07,11,10,07,19.80
2014,07,11,10,08,19.80
2014,07,11,10,09,19.80
2014,07,11,10,10,19.90
2014,07,11,10,11,19.90
2014,07,11,10,12,19.90
2014,07,11,10,13,19.90
2014,07,11,10,14,20.00
2014,07,11,10,15,20.00
2014,07,11,10,16,20.00
2014,07,11,10,17,20.00
2014,07,11,10,18,20.10
2014,07,11,10,19,20.10
2014,07,11,10,20,20.10
2014,07,11,10,21,20.20
2014,07,11,10,22,20.30
2014,07,11,10,23,20.40
2014,07,11,10,24,20.40
2014,07,11,10,25,20.50
2014,07,11,10,26,20.60
2014,07,11,10,27,20.70
2014,07,11,10,28,20.80
2014,07,11,10,29,20.90
2014,07,11,10,30,20.90
2014,07,11,10,31,20.90
2014,07,11,10,32,20.90
2014,07,11,10,33,20.90
2014,07,11,10,34,21.00
2014,07,11,10,35,21.00
2014,07,11,10,36,21.10
2014,07,11,10,37,21.20
2014,07,11,10,38,21.30
2014,07,11,10,39,21.40
2014,07,11,10,40,21.50
2014,07,11,10,41,21.60
2014,07,11,10,42,21.70
2014,07,11,10,43,21.80
2014,07,11,10,44,21.80
2014,07,11,10,45,21.90
2014,07,11,10,46,21.90
2014,07,11,10,47,21.90
2014,07,11,10,48,21.90
2014,07,11,10,49,21.90
2014,07,11,10,50,22.00
2014,07,11,10,51,22.10
2014,07,11,10,52,22.10
2014,07,11,10,53,22.10
2014,07,11,10,54,22.20
2014,07,11,10,55,22.20
2014,07,11,10,56,22.30
2014,07,11,10,57,22.30
2014,07,11,10,58,22.30
2014,07,11,10,59,22.30
2014,07,11,11,00,22.30
2014,07,11,11,01,22.30
2014,07,11,11,02,22.40
2014,07,11,11,03,22.40
2014,07,11,11,04,22.50
2014,07,11,11,05,22.60
2014,07,11,11,06,22.60
2014,07,11,11,07,22.80
2014,07,11,11,08,22.90
2014,07,11,11,09,23.00
2014,07,11,11,10,23.10
2014,07,11,11,11,23.10
2014,07,11,11,12,23.20
2014,07,11,11,13,23.30
2014,07,11,11,14,23.50
2014,07,11,11,15,23.60
2014,07,11,11,16,23.70
2014,07,11,11,17,23.80
2014,07,11,11,18,23.90
2014,07,11,11,19,23.90
2014,07,11,11,20,23.90
2014,07,11,11,21,24.00
2014,07,11,11,22,24.00
2014,07,11,11,23,24.10
2014,07,11,11,24,24.10
2014,07,11,11,25,24.10
2014,07,11,11,26,24.10
2014,07,11,11,27,24.10
2014,07,11,11,28,24.10
2014,07,11,11,29,24.20
2014,07,11,11,30,24.30
2014,07,11,11,31,24.40
2014,07,11,11,32,24.50
2014,07,11,11,33,24.60
2014,07,11,11,34,24.60
2014,07,11,11,35,24.70
2014,07,11,11,36,24.70
2014,07,11,11,37,24.80
2014,07,11,11,38,24.90
2014,07,11,11,39,25.00
2014,07,11,11,40,25.10
2014,07,11,11,41,25.20
2014,07,11,11,42,25.30
2014,07,11,11,43,25.40
2014,07,11,11,44,25.50
2014,07,11,11,45,25.60
2014,07,11,11,46,25.60
2014,07,11,11,47,25.70
2014,07,11,11,48,25.80
2014,07,11,11,49,25.90
2014,07,11,11,50,26.00
2014,07,11,11,51,26.10
2014,07,11,11,52,26.20
2014,07,11,11,53,26.30
2014,07,11,11,54,26.30
2014,07,11,11,55,26.30
2014,07,11,11,56,26.40
2014,07,11,11,57,26.40
2014,07,11,11,58,26.40
2014,07,11,11,59,26.40
2014,07,11,12,00,26.40
2014,07,11,12,01,26.40
2014,07,11,12,02,26.40
2014,07,11,12,03,26.40
2014,07,11,12,04,26.40
2014,07,11,12,05,26.40
2014,07,11,12,06,26.40
2014,07,11,12,07,26.50
2014,07,11,12,08,26.50
2014,07,11,12,09,26.50
2014,07,11,12,10,26.60
2014,07,11,12,11,26.60
2014,07,11,12,12,26.70
2014,07,11,12,13,26.90
2014,07,11,12,14,27.00
2014,07,11,12,15,27.10
2014,07,11,12,16,27.30
2014,07,11,12,17,27.40
2014,07,11,12,18,27.40
2014,07,11,12,19,27.50
2014,07,11,12,20,27.60
2014,07,11,12,21,27.70
2014,07,11,12,22,27.70
2014,07,11,12,23,27.70
2014,07,11,12,24,27.70
2014,07,11,12,25,27.70
2014,07,11,12,26,27.70
2014,07,11,12,27,27.70
2014,07,11,12,28,27.70
2014,07,11,12,29,27.70
2014,07,11,12,30,27.80
2014,07,11,12,31,27.90
2014,07,11,12,32,27.90
2014,07,11,12,33,28.00
2014,07,11,12,34,28.00
2014,07,11,12,35,28.10
2014,07,11,12,36,28.20
2014,07,11,12,37,28.20
2014,07,11,12,38,28.30
2014,07,11,12,39,28.30
2014,07,11,12,40,28.30
2014,07,11,12,41,28.40
2014,07,11,12,42,28.40
2014,07,11,12,43,28.50
2014,07,11,12,44,28.60
2014,07,11,12,45,28.70
2014,07,11,12,46,28.80
2014,07,11,12,47,28.80
2014,07,11,12,48,28.90
2014,07,11,12,49,28.90
2014,07,11,12,50,29.00
2014,07,11,12,51,29.10
2014,07,11,12,52,29.20
2014,07,11,12,53,29.20
2014,07,11,12,54,29.20
2014,07,11,12,55,29.20
2014,07,11,12,56,29.10
2014,07,11,12,57,29.10
2014,07,11,12,58,29.10
2014,07,11,12,59,29.10
2014,07,11,13,00,29.10
2014,07,11,13,01,29.10
2014,07,11,13,02,29.10
2014,07,11,13,03,29.20
2014,07,11,13,04,29.20
2014,07,11,13,05,29.30
2014,07,11,13,06,29.30
2014,07,11,13,07,29.40
2014,07,11,13,08,29.60
2014,07,11,13,09,29.60
2014,07,11,13,10,29.80
2014,07,11,13,11,29.90
2014,07,11,13,12,30.10
2014,07,11,13,13,30.20
2014,07,11,13,14,30.30
2014,07,11,13,15,30.40
2014,07,11,13,16,30.40
2014,07,11,13,17,30.40
2014,07,11,13,18,30.40
2014,07,11,13,19,30.40
2014,07,11,13,20,30.40
2014,07,11,13,21,30.40
2014,07,11,13,22,30.30
2014,07,11,13,23,30.30
2014,07,11,13,24,30.20
2014,07,11,13,25,30.20
2014,07,11,13,26,30.20
2014,07,11,13,27,30.30
2014,07,11,13,28,30.30
2014,07,11,13,29,30.40
2014,07,11,13,30,30.30
2014,07,11,13,31,30.30
2014,07,11,13,32,30.30
2014,07,11,13,33,30.30
2014,07,11,13,34,30.30
2014,07,11,13,35,30.30
2014,07,11,13,36,30.30
2014,07,11,13,37,30.30
2014,07,11,13,38,30.40
2014,07,11,13,39,30.40
2014,07,11,13,40,30.40
2014,07,11,13,41,30.50
2014,07,11,13,42,30.50
2014,07,11,13,43,30.60
2014,07,11,13,44,30.60
2014,07,11,13,45,30.70
2014,07,11,13,46,30.70
2014,07,11,13,47,30.70
2014,07,11,13,48,30.70
2014,07,11,13,49,30.80
2014,07,11,13,50,30.80
2014,07,11,13,51,30.80
2014,07,11,13,52,30.80
2014,07,11,13,53,30.80
2014,07,11,13,54,30.80
2014,07,11,13,55,30.80
2014,07,11,13,56,30.80
2014,07,11,13,57,30.90
2014,07,11,13,58,30.90
2014,07,11,13,59,31.00
2014,07,11,14,00,31.00
2014,07,11,14,01,31.10
2014,07,11,14,02,31.10
2014,07,11,14,03,31.10
2014,07,11,14,04,31.20
2014,07,11,14,05,31.20
2014,07,11,14,06,31.20
2014,07,11,14,07,31.30
2014,07,11,14,08,31.30
2014,07,11,14,09,31.30
2014,07,11,14,10,31.30
2014,07,11,14,11,31.40
2014,07,11,14,12,31.30
2014,07,11,14,13,31.30
2014,07,11,14,14,31.30
2014,07,11,14,15,31.30
2014,07,11,14,16,31.30
2014,07,11,14,17,31.30
2014,07,11,14,18,31.30
2014,07,11,14,19,31.30
2014,07,11,14,20,31.30
2014,07,11,14,21,31.30
2014,07,11,14,22,31.30
2014,07,11,14,23,31.30
2014,07,11,14,24,31.30
2014,07,11,14,25,31.30
2014,07,11,14,26,31.30
2014,07,11,14,27,31.30
2014,07,11,14,28,31.30
2014,07,11,14,29,31.30
2014,07,11,14,30,31.30
2014,07,11,14,31,31.30
2014,07,11,14,32,31.30
2014,07,11,14,33,31.30
2014,07,11,14,34,31.30
2014,07,11,14,35,31.30
2014,07,11,14,36,31.30
2014,07,11,14,37,31.30
2014,07,11,14,38,31.40
2014,07,11,14,39,31.40
2014,07,11,14,40,31.40
2014,07,11,14,41,31.40
2014,07,11,14,42,31.40
2014,07,11,14,43,31.40
2014,07,11,14,44,31.40
2014,07,11,14,45,31.40
2014,07,11,14,46,31.40
2014,07,11,14,47,31.40
2014,07,11,14,48,31.40
2014,07,11,14,49,31.40
2014,07,11,14,50,31.40
2014,07,11,14,51,31.40
2014,07,11,14,52,31.40
2014,07,11,14,53,31.40
2014,07,11,14,54,31.40
2014,07,11,14,55,31.40
2014,07,11,14,56,31.50
2014,07,11,14,57,31.50
2014,07,11,14,58,31.50
2014,07,11,14,59,31.50
2014,07,11,15,00,31.50
2014,07,11,15,01,31.50
2014,07,11,15,02,31.50
2014,07,11,15,03,31.50
2014,07,11,15,04,31.50
2014,07,11,15,05,31.50
2014,07,11,15,06,31.40
2014,07,11,15,07,31.40
2014,07,11,15,08,31.40
2014,07,11,15,09,31.40
2014,07,11,15,10,31.50
2014,07,11,15,11,31.40
2014,07,11,15,12,31.40
2014,07,11,15,13,31.40
2014,07,11,15,14,31.40
2014,07,11,15,15,31.50
2014,07,11,15,16,31.50
2014,07,11,15,17,31.50
2014,07,11,15,18,31.50
2014,07,11,15,19,31.50
2014,07,11,15,20,31.50
2014,07,11,15,21,31.50
2014,07,11,15,22,31.50
2014,07,11,15,23,31.60
2014,07,11,15,24,31.60
2014,07,11,15,25,31.50
2014,07,11,15,26,31.50
2014,07,11,15,27,31.40
2014,07,11,15,28,31.40
2014,07,11,15,29,31.40
2014,07,11,15,30,31.40
2014,07,11,15,31,31.40
2014,07,11,15,32,31.40
2014,07,11,15,33,31.40
2014,07,11,15,34,31.40
2014,07,11,15,35,31.40
2014,07,11,15,36,31.40
2014,07,11,15,37,31.40
2014,07,11,15,38,31.40
2014,07,11,15,39,31.40
2014,07,11,15,40,31.40
2014,07,11,15,41,31.40
2014,07,11,15,42,31.40
2014,07,11,15,43,31.50
2014,07,11,15,44,31.60
2014,07,11,15,45,31.60
2014,07,11,15,46,31.60
2014,07,11,15,47,31.60
2014,07,11,15,48,31.60
2014,07,11,15,49,31.60
2014,07,11,15,50,31.60
2014,07,11,15,51,31.60
2014,07,11,15,52,31.60
2014,07,11,15,53,31.60
2014,07,11,15,54,31.60
2014,07,11,15,55,31.60
2014,07,11,15,56,31.50
2014,07,11,15,57,31.50
2014,07,11,15,58,31.60
2014,07,11,15,59,31.60
2014,07,11,16,00,31.60
2014,07,11,16,01,31.60
2014,07,11,16,02,31.60
2014,07,11,16,03,31.70
2014,07,11,16,04,31.70
2014,07,11,16,05,31.70
2014,07,11,16,06,31.70
2014,07,11,16,07,31.70
2014,07,11,16,08,31.60
2014,07,11,16,09,31.60
2014,07,11,16,10,31.60
2014,07,11,16,11,31.60
2014,07,11,16,12,31.60
2014,07,11,16,13,31.60
2014,07,11,16,14,31.60
2014,07,11,16,15,31.60
2014,07,11,16,16,31.60
2014,07,11,16,17,31.60
2014,07,11,16,18,31.60
2014,07,11,16,19,31.60
2014,07,11,16,20,31.60
2014,07,11,16,21,31.60
2014,07,11,16,22,31.60
2014,07,11,16,23,31.60
2014,07,11,16,24,31.60
2014,07,11,16,25,31.60
2014,07,11,16,26,31.70
2014,07,11,16,27,31.70
2014,07,11,16,28,31.70
2014,07,11,16,29,31.60
2014,07,11,16,30,31.60
2014,07,11,16,31,31.50
2014,07,11,16,32,31.50
2014,07,11,16,33,31.40
2014,07,11,16,34,31.40
2014,07,11,16,35,31.40
2014,07,11,16,36,31.40
2014,07,11,16,37,31.30
2014,07,11,16,38,31.30
2014,07,11,16,39,31.30
2014,07,11,16,40,31.30
2014,07,11,16,41,31.30
2014,07,11,16,42,31.20
2014,07,11,16,43,31.20
2014,07,11,16,44,31.20
2014,07,11,16,45,31.20
2014,07,11,16,46,31.20
2014,07,11,16,47,31.20
2014,07,11,16,48,31.20
2014,07,11,16,49,31.20
2014,07,11,16,50,31.30
2014,07,11,16,51,31.30
2014,07,11,16,52,31.20
2014,07,11,16,53,31.20
2014,07,11,16,54,31.20
2014,07,11,16,55,31.20
2014,07,11,16,56,31.20
2014,07,11,16,57,31.20
2014,07,11,16,58,31.20
2014,07,11,16,59,31.20
2014,07,11,17,00,31.10
2014,07,11,17,01,31.10
2014,07,11,17,02,31.10
2014,07,11,17,03,31.20
2014,07,11,17,04,31.10
2014,07,11,17,05,31.10
2014,07,11,17,06,31.10
2014,07,11,17,07,31.10
2014,07,11,17,08,31.10
2014,07,11,17,09,31.10
2014,07,11,17,10,31.20
2014,07,11,17,11,31.20
2014,07,11,17,12,31.20
2014,07,11,17,13,31.20
2014,07,11,17,14,31.20
2014,07,11,17,15,31.10
2014,07,11,17,16,31.10
2014,07,11,17,17,31.10
2014,07,11,17,18,31.10
2014,07,11,17,19,31.10